Loading...
 

Motu Uta



Localisation
The transects and the thermometer are at -14 meters depth on the outer slope.
17°31.360'S/149°34.160'W (conversion DMD/DMS)
The multiparameter probe SB16 was at -52m at the following position
17°31.334'S/149°34.354'W (conversion DMD/DMS) until May 4th 2017 when it was then placed at -29m with the following position 17°31.485'S/149°34.460'W (conversion DMD/DMS).

Program
The Polynesia Mana since 1996

Icon Corail 35px The analysis of the coral cover is done using three methods:
Photo-quadrat coral transect
Coral survey by "manta tow"
Underwater seascape photography
You can access to and to the photo quadrats
Icon Poisson 35px The fish are estimated using ichtyological assessment.
Here are the data
Icon Temp Physico-chemical parameters
The temperature, conductivity, salinity, pH, oxygen and dissolved oxygen are recorded using the multiparameter probe SB16
Here are the data

Quadrat n°10 on the outer slope of Tahiti Motu Uta, in 2015/CRIOBE

Historique Motu Uta
Données brutes de suivi des équipements. Les dates affichées correspondent à la date de modification du fichier informatique en laboratoire.

DateDepartureArrivalInstrument
2012-10-09 16:15:24CRIOBE > MooreaCRIOBE > PapeeteSBE5P Pompe 5219
2012-10-09 16:29:33CRIOBE > MooreaCRIOBE > PapeeteSBE16plusV2 6052
2012-10-09 16:29:53CRIOBE > TaapunaCRIOBE > PapeeteSBE18 pH 0700
2012-10-09 16:30:38CRIOBE > TaapunaCRIOBE > PapeeteSBE43 Oxygen 1408
2013-03-27 08:26:21Sea BirdCRIOBE > PapeeteSBE16plusV2 6167
2013-03-27 09:48:13Sea BirdCRIOBE > PapeeteFLNTUS fluo turb 1916
2013-03-27 09:55:32Sea BirdCRIOBE > PapeeteSBE18 pH 0656
2013-03-27 09:56:56Sea BirdCRIOBE > PapeeteSBE43 Oxygen 1609
2013-03-27 14:23:34Sea BirdCRIOBE > PapeeteSBE5P Pompe 5040
2013-03-28 13:22:30CRIOBE > PapeeteCRIOBE > MooreaSBE16plusV2 6052
2013-03-28 13:22:57CRIOBE > PapeeteCRIOBE > MooreaSBE18 pH 0700
2013-03-28 13:23:15CRIOBE > PapeeteCRIOBE > MooreaSBE43 Oxygen 1408
2013-03-28 13:23:36CRIOBE > PapeeteCRIOBE > MooreaSBE5P Pompe 5219
2013-09-18 11:57:18CRIOBE > MooreaCRIOBE > PapeeteSBE5P Pompe 5673
2013-09-18 11:57:26CRIOBE > MooreaCRIOBE > PapeeteFLNTUS fluo turb 1936
2013-09-18 11:57:32CRIOBE > MooreaCRIOBE > PapeeteSBE18 pH 0664
2013-09-18 11:57:37CRIOBE > MooreaCRIOBE > PapeeteSBE16plusV2 6051
2013-09-18 11:57:42CRIOBE > MooreaCRIOBE > PapeeteSBE43 Oxygen 1409
2013-10-01 14:07:37CRIOBE > PapeeteCRIOBE > MooreaFLNTUS fluo turb 1916
2013-10-01 14:09:27CRIOBE > PapeeteCRIOBE > MooreaSBE16plusV2 6167
2013-10-01 14:09:51CRIOBE > PapeeteCRIOBE > MooreaSBE18 pH 0656
2013-10-01 14:10:49CRIOBE > PapeeteCRIOBE > MooreaSBE43 Oxygen 1609
2013-10-01 14:11:04CRIOBE > PapeeteCRIOBE > MooreaSBE5P Pompe 5040
2014-03-27 00:42:49CRIOBE > MooreaCRIOBE > PapeeteFLNTUS fluo turb 1916
2014-03-27 01:04:15CRIOBE > MooreaCRIOBE > PapeeteSBE18 pH 0778
2014-03-27 01:22:40CRIOBE > MooreaCRIOBE > PapeeteSBE43 Oxygen 1864
2014-03-27 01:38:13CRIOBE > MooreaCRIOBE > PapeeteSBE16plusV2 6052
2014-04-03 02:44:08CRIOBE > PapeeteCRIOBE > MooreaFLNTUS fluo turb 1936
2014-04-03 02:45:00CRIOBE > PapeeteCRIOBE > MooreaSBE16plusV2 6051
2014-04-03 02:46:05CRIOBE > PapeeteCRIOBE > MooreaSBE18 pH 0664
2014-04-03 02:47:00CRIOBE > PapeeteCRIOBE > MooreaSBE43 Oxygen 1409
2014-04-03 02:47:34CRIOBE > PapeeteCRIOBE > MooreaSBE5P Pompe 5673
2014-04-03 02:54:30CRIOBE > MooreaCRIOBE > PapeeteSBE5P Pompe 5219
2014-09-30 03:32:57CRIOBE > MooreaCRIOBE > PapeeteSBE16plusV2 6158
2014-09-30 03:33:17CRIOBE > MooreaCRIOBE > PapeeteSBE18 pH 0700
2014-09-30 03:33:35CRIOBE > MooreaCRIOBE > PapeeteSBE43 Oxygen 1609
2014-09-30 21:09:15CRIOBE > MooreaCRIOBE > PapeeteSBE5P Pompe 4997
2014-10-08 22:40:00CRIOBE > PapeeteCRIOBE > MooreaSBE43 Oxygen 1864
2014-10-08 22:40:39CRIOBE > PapeeteCRIOBE > MooreaSBE18 pH 0778
2014-10-08 22:41:39CRIOBE > PapeeteCRIOBE > MooreaSBE5P Pompe 5219
2014-10-08 22:43:33CRIOBE > PapeeteCRIOBE > MooreaSBE16plusV2 6052
2014-10-08 22:44:12CRIOBE > PapeeteCRIOBE > MooreaFLNTUS fluo turb 1916
2015-04-01 03:32:55CRIOBE > MooreaCRIOBE > PapeeteSBE18 pH 0784
2015-04-01 03:33:01CRIOBE > TaapunaCRIOBE > PapeeteSBE43 Oxygen 1408
2015-04-01 03:33:16CRIOBE > TaapunaCRIOBE > PapeeteSBE16plusV2 6167
2015-04-01 03:35:20CRIOBE > MooreaCRIOBE > PapeeteFLNTUS fluo turb 1916
2015-04-01 21:07:26CRIOBE > MooreaCRIOBE > PapeeteSBE5P Pompe 5040
2015-04-12 01:14:45CRIOBE > PapeeteCRIOBE > MooreaSBE5P Pompe 4997
2015-04-12 01:16:14CRIOBE > PapeeteCRIOBE > MooreaSBE16plusV2 6158
2015-04-12 01:41:52CRIOBE > PapeeteCRIOBE > MooreaSBE43 Oxygen 1609
2015-04-12 01:43:02CRIOBE > PapeeteCRIOBE > MooreaSBE18 pH 0700
2015-11-12 22:53:05CRIOBE > MooreaCRIOBE > PapeeteSBE16plusV2 6158
2015-11-12 22:53:21CRIOBE > MooreaCRIOBE > PapeeteSBE43 Oxygen 1609
2015-11-12 22:53:32CRIOBE > MooreaCRIOBE > PapeeteSBE5P Pompe 4997
2015-11-12 22:53:58CRIOBE > MooreaCRIOBE > PapeeteSBE18 pH 0683
2015-12-24 01:52:12CRIOBE > PapeeteCRIOBE > Moorea > CRIOBEFLNTUS fluo turb 1916
2015-12-24 01:52:30CRIOBE > PapeeteCRIOBE > Moorea > CRIOBESBE16plusV2 6167
2015-12-24 01:52:47CRIOBE > PapeeteCRIOBE > Moorea > CRIOBESBE18 pH 0784
2015-12-24 01:53:01CRIOBE > PapeeteCRIOBE > Moorea > CRIOBESBE43 Oxygen 1408
2015-12-24 01:53:16CRIOBE > PapeeteCRIOBE > Moorea > CRIOBESBE5P Pompe 5040
2016-07-22 23:57:20CRIOBE > HaapitiCRIOBE > PapeeteSBE16plusV2 6052
2016-07-22 23:57:26CRIOBE > HaapitiCRIOBE > PapeeteSBE18 pH 0656
2016-07-22 23:57:33CRIOBE > HaapitiCRIOBE > PapeeteSBE43 Oxygen 1612
2016-07-22 23:57:40CRIOBE > HaapitiCRIOBE > PapeeteFLNTUS fluo turb 1916
2016-07-22 23:57:46CRIOBE > HaapitiCRIOBE > PapeeteSBE5P Pompe 5219
2016-07-23 02:06:37CRIOBE > PapeeteCRIOBE > Moorea > CRIOBEFLNTUS fluo turb 1916
2016-08-09 23:01:19CRIOBE > PapeeteCRIOBE > Moorea > CRIOBESBE18 pH 0683
2016-08-09 23:01:26CRIOBE > PapeeteCRIOBE > Moorea > CRIOBESBE16plusV2 6158
2016-08-09 23:03:15CRIOBE > PapeeteCRIOBE > Moorea > CRIOBESBE43 Oxygen 1609
2016-08-09 23:09:46CRIOBE > PapeeteCRIOBE > Moorea > CRIOBESBE5P Pompe 4997



Sonde SBE16 déplacée
gsiu Friday May 5, 2017

La sonde SBE16 a été déplacée de 52m à 29m, plus à l'ouest (dans le sens du courant au fond).
Les nouvelles coordonnées :
S 17°31.485
W149°34.460

<more>
Sonde SBE16 du 27 novembre 2015 au 3 août 2016
gsiu Friday September 16, 2016
  • Température plausible sur l'ensemble des dates
  • Salinité / conductivité plausible jusqu'au 28 mars 2016. Données suivantes totalement fausses (1999 et 99) effacées.
  • Oxygène plausible jusqu'au 28 décembre 2015. Données négatives ensuite effacées. ... <more>

Calendar

1)  2017-07-25
Moorea - Tiahura
2)  2017-08-21
Cook Islands
3)  2017-08-28
Série Galzin
4)  2017-09-11
Samoa
5)  2017-10-16
Tonga